NOAA 16 DEB, 41423

Orbit data source: Space-Track

NOAA 16 DEB, 41423 is space debris in SSO originally from a launch on Thu, 21 Sep 2000 UTC launched from the Air Force Western Test Range (AFWTR). Debris objects in space refer to the collection of defunct objects orbiting the Earth. Examples of debris include non-operational satellites, rocket bodies, and fragments generated from explosions, collisions, or faulty payload assembly.

Loading next visibility...
Identifier
41423, 2000-055LC
Orbit
SSO
Country
Flag of USUS
Related business
Manufacturer
Unknown
Mission
Spacecraft
Bus & Motor
Unknown
Mass
Unknown
Launch date (UTC)
2000-09-21 (26 years ago)
Launch vehicle
Unknown
Launch site
Air Force Western Test Range (AFWTR)
Object type
Payload
Rocket body
Debris
Shape & HBR
Unknown shape, 0.1 m
Radar Cross Section
Medium (>0.1 m² and <1 m²)

Expand to show TLE details & history
Last TLE update: 3 days ago

TLE from 3 days ago
0 NOAA 16 DEB
1 41423U 00055LC  26170.71802299  .00003306  00000-0  11532-2 0  9994
2 41423  98.6690 260.8801 0013021 164.4460 195.7128 14.35935609537846
Epoch: 2026-06-19T17:13Z
TLE epoch observation values (Epoch: 2026-06-19T17:13:57.186Z)
Latitude
-0.00001°
Longitude
94.44884°
Altitude
783.861 km
Speed
7.457 km/s
True Right ascension
17h 23m 31s
True Declination
0° 00' 00"
Sunlit
Object was in full shadow at epoch
Visualization orbit readout
Latitude
Unknown
Longitude
Unknown
Altitude
Unknown
Speed
Unknown
Apparent Right ascension
Unknown
Apparent Declination
Unknown
Sunlit
N/A
Visualization observer readout
Local Sidereal Time
21:41:05
Azimuth
Unknown
Elevation
Unknown
Doppler factor
Unknown
Orbital elements
Apogee altitude
778.401 km
Perigee altitude
759.788 km
Semi-major axis
7,147.231 km
Eccentricity
0.0013
Inclination
98.669°
RAAN
260.8801°
Arg. of periapsis
164.446°
True anomaly
195.67245°
Mean anomaly
195.7128°
Eccentric anomaly
195.69262°
Mean motion
3.592 °/min
Orbital period
100.22 mins
BSTAR
0.0011532
Loading maneuver chart data...
Computing Atmospheric mass density...
Loading historical data...
Loading historical data...
Loading historical data...
Loading historical data...
Loading historical data...
Loading historical data...
Loading historical data...

Documentation

Showing up to 5 results
|